Weather History for Lamar, CO

Change the Weather History Date:

Saturday, September 29, 2012

  Actual Average Record
Temperature  
Mean Temperature 63 °F 61 °F  
Max Temperature 73 °F 78 °F 97 °F (1933)
Min Temperature 53 °F 44 °F 27 °F (1984)
Degree Days  
Heating Degree Days 2 6  
Month to date heating degree days 49 74  
Since 1 July heating degree days 49 79  
Cooling Degree Days 0 1  
Month to date cooling degree days 107 120  
Year to date cooling degree days 1623 1109  
Growing Degree Days 13 (Base 50)    
Moisture  
Dew Point 56 °F    
Average Humidity 79    
Maximum Humidity 100    
Minimum Humidity 57    
Precipitation  
Precipitation 0.01 in 0.03 in 1.22 in (1941)
Month to date precipitation 1.13 1.22  
Year to date precipitation 5.51 13.59  
Sea Level Pressure  
Sea Level Pressure 30.07 in    
Wind  
Wind Speed 8 mph (East)    
Max Wind Speed 18 mph    
Max Gust Speed 23 mph    
Visibility 5 miles    
Events Fog    
T = Trace of Precipitation, MM = Missing Value Source: NWS Daily Summary

Daily Weather History Graph

Daily Weather History Graph

Search for Another Location

Airport:

Trip Planner

Search our weather history database for the weather conditions in past years. The results will help you decide how hot, cold, wet, or windy it might be!

Date:

Astronomy

Sep. 29, 2012 Rise Set
Actual Time 6:45 AM MDT 6:35 PM MDT
Civil Twilight 6:18 AM MDT 7:02 PM MDT
Nautical Twilight 5:48 AM MDT 7:32 PM MDT
Astronomical Twilight 5:17 AM MDT 8:03 PM MDT
Moon 6:10 PM MDT (9/29) 6:18 AM MDT (9/29)
Length of Visible Light 12h 43m
Length of Day
11h 50m
Full, 100% of the Moon is Illuminated
Sep 29
Full
Sep 29
Full
Oct 8
Last Quarter
Oct 15
New
Oct 21
First Quarter

Hourly Weather History & Observations

Time (MDT) Temp. Dew Point Humidity Pressure Visibility Wind Dir Wind Speed Gust Speed Precip Events Conditions
12:53 AM 55.0 °F 54.0 °F 96% 30.07 in 5.0 mi ENE 3.5 mph - N/A   Clear
1:53 AM 54.0 °F 53.1 °F 97% 30.08 in 4.0 mi East 5.8 mph - N/A   Clear
2:35 AM 53.6 °F 53.6 °F 100% 30.16 in 2.5 mi ENE 5.8 mph - N/A   Clear
2:53 AM 54.0 °F 53.1 °F 97% 30.06 in 2.5 mi ENE 3.5 mph - N/A   Clear
3:06 AM 53.6 °F 51.8 °F 94% 30.15 in 1.2 mi NE 4.6 mph - N/A   Partly Cloudy
3:08 AM 53.6 °F 51.8 °F 94% 30.15 in 0.8 mi NE 4.6 mph - N/A   Mist
3:53 AM 54.0 °F 54.0 °F 100% 30.06 in 0.2 mi ENE 6.9 mph - N/A Fog Fog
4:53 AM 54.0 °F 54.0 °F 100% 30.05 in 0.2 mi East 8.1 mph - N/A Fog Fog
5:53 AM 54.0 °F 54.0 °F 100% 30.05 in 0.2 mi ENE 6.9 mph - 0.01 in Fog Fog
6:53 AM 54.0 °F 54.0 °F 100% 30.07 in 0.2 mi East 4.6 mph - N/A Fog Fog
7:53 AM 55.0 °F 55.0 °F 100% 30.08 in 0.2 mi East 4.6 mph - N/A Fog Fog
8:53 AM 55.9 °F 55.9 °F 100% 30.08 in 0.2 mi East 5.8 mph - N/A Fog Fog
9:53 AM 57.0 °F 57.0 °F 100% 30.09 in 0.8 mi ESE 5.8 mph - N/A   Overcast
10:00 AM 57.2 °F 57.2 °F 100% 30.17 in 1.2 mi SE 3.5 mph - N/A   Overcast
10:15 AM 57.2 °F 57.2 °F 100% 30.17 in 2.0 mi East 4.6 mph - N/A   Overcast
10:31 AM 57.2 °F 57.2 °F 100% 30.17 in 4.0 mi SE 5.8 mph - N/A   Overcast
10:53 AM 57.9 °F 57.9 °F 100% 30.09 in 5.0 mi East 6.9 mph - N/A   Overcast
11:38 AM 66.2 °F 59.0 °F 78% 30.15 in 8.0 mi ENE 8.1 mph - N/A   Mostly Cloudy
11:53 AM 66.9 °F 59.0 °F 76% 30.05 in 9.0 mi East 12.7 mph - N/A   Mostly Cloudy
12:28 PM 68.0 °F 59.0 °F 73% 30.13 in 8.0 mi East 13.8 mph - N/A   Overcast
12:53 PM 69.1 °F 59.0 °F 70% 30.03 in 10.0 mi East 13.8 mph 19.6 mph N/A   Mostly Cloudy
1:36 PM 71.6 °F 59.0 °F 64% 30.10 in 10.0 mi ESE 13.8 mph - N/A   Scattered Clouds
1:53 PM 73.0 °F 59.0 °F 61% 30.00 in 10.0 mi ESE 15.0 mph 21.9 mph N/A   Scattered Clouds
2:53 PM 71.1 °F 57.0 °F 61% 29.99 in 10.0 mi ESE 12.7 mph - N/A   Partly Cloudy
3:53 PM 72.0 °F 57.0 °F 59% 29.97 in 10.0 mi East 16.1 mph - N/A   Clear
4:53 PM 71.1 °F 55.9 °F 59% 29.97 in 10.0 mi ESE 13.8 mph - N/A   Clear
5:53 PM 66.9 °F 55.0 °F 66% 29.98 in 10.0 mi ESE 13.8 mph - N/A   Clear
6:53 PM 64.0 °F 55.0 °F 73% 30.00 in 10.0 mi ESE 8.1 mph - N/A   Clear
7:53 PM 61.0 °F 55.9 °F 83% 30.02 in 10.0 mi East 3.5 mph - N/A   Clear
8:53 PM 59.0 °F 55.0 °F 87% 30.03 in 10.0 mi Calm Calm - N/A   Clear
9:53 PM 57.9 °F 55.0 °F 90% 30.03 in 9.0 mi East 5.8 mph - N/A   Clear
10:53 PM 55.9 °F 54.0 °F 93% 30.04 in 8.0 mi NE 4.6 mph - N/A   Clear
11:53 PM 55.9 °F 53.1 °F 90% 30.01 in 6.0 mi NE 3.5 mph - N/A   Clear